Stündliche Wetter Caxias do Sul

Heute, 24 Januar, Sonntag

Zeit Temperatur Niederschläge Wind Luftdruck Luftfeuchtigkeit
00:00 +18°C° 0 mm 2 m/S 694 mmHg 93%
01:00 +17°C° 0.4 mm 2 m/S 694 mmHg 95%
02:00 +17°C° 0.4 mm 2 m/S 693 mmHg 96%
03:00 +16°C° 0.4 mm 1 m/S 693 mmHg 97%
04:00 +16°C° 0.7 mm 1 m/S 693 mmHg 97%
05:00 +16°C° 0.7 mm 1 m/S 693 mmHg 98%
06:00 +16°C° 0.7 mm 1 m/S 693 mmHg 98%
07:00 +17°C° 0.9 mm 2 m/S 694 mmHg 95%
08:00 +19°C° 0.9 mm 2 m/S 694 mmHg 92%
09:00 +20°C° 0.9 mm 2 m/S 695 mmHg 90%
10:00 +23°C° 1.2 mm 1 m/S 695 mmHg 85%
11:00 +25°C° 1.2 mm 1 m/S 695 mmHg 79%
12:00 +27°C° 1.2 mm 1 m/S 695 mmHg 74%
13:00 +27°C° 2 mm 1 m/S 694 mmHg 74%
14:00 +27°C° 2 mm 1 m/S 694 mmHg 74%
15:00 +27°C° 2 mm 1 m/S 693 mmHg 74%
16:00 +26°C° 0.8 mm 1 m/S 693 mmHg 77%
17:00 +25°C° 0.8 mm 1 m/S 692 mmHg 80%
18:00 +25°C° 0.8 mm 1 m/S 692 mmHg 84%
19:00 +23°C° 0 mm 1 m/S 692 mmHg 87%
20:00 +22°C° 0 mm 1 m/S 692 mmHg 90%
21:00 +21°C° 0 mm 1 m/S 692 mmHg 93%
22:00 +19°C° 0 mm 2 m/S 692 mmHg 91%
23:00 +19°C° 0 mm 2 m/S 692 mmHg 90%

Morgen, 25 Januar, Montag

Zeit Temperatur Niederschläge Wind Luftdruck Luftfeuchtigkeit
00:00 +19°C° 0 mm 2 m/S 692 mmHg 88%
01:00 +19°C° 0.1 mm 2 m/S 692 mmHg 89%
02:00 +19°C° 0.1 mm 2 m/S 691 mmHg 90%
03:00 +18°C° 0.1 mm 2 m/S 691 mmHg 90%
04:00 +18°C° 1 mm 2 m/S 691 mmHg 93%
05:00 +18°C° 1 mm 2 m/S 691 mmHg 96%
06:00 +18°C° 1 mm 1 m/S 691 mmHg 98%
07:00 +18°C° 0.6 mm 2 m/S 692 mmHg 95%
08:00 +20°C° 0.6 mm 2 m/S 692 mmHg 91%
09:00 +21°C° 0.6 mm 2 m/S 693 mmHg 87%
10:00 +23°C° 0.2 mm 2 m/S 693 mmHg 83%
11:00 +24°C° 0.2 mm 3 m/S 693 mmHg 79%
12:00 +24°C° 0.2 mm 3 m/S 693 mmHg 75%
13:00 +25°C° 0.4 mm 3 m/S 693 mmHg 74%
14:00 +25°C° 0.4 mm 3 m/S 692 mmHg 72%
15:00 +26°C° 0.4 mm 3 m/S 692 mmHg 71%
16:00 +25°C° 0.1 mm 2 m/S 692 mmHg 75%
17:00 +24°C° 0.1 mm 2 m/S 691 mmHg 78%
18:00 +23°C° 0.1 mm 1 m/S 691 mmHg 82%
19:00 +22°C° 0 mm 1 m/S 691 mmHg 84%
20:00 +21°C° 0 mm 1 m/S 691 mmHg 85%
21:00 +21°C° 0 mm 1 m/S 691 mmHg 87%
22:00 +20°C° 0 mm 1 m/S 691 mmHg 87%
23:00 +20°C° 0 mm 1 m/S 691 mmHg 88%

übermorgen, 26 Januar, Dienstag

Zeit Temperatur Niederschläge Wind Luftdruck Luftfeuchtigkeit
00:00 +20°C° 0 mm 1 m/S 691 mmHg 88%
01:00 +19°C° 0 mm 2 m/S 691 mmHg 90%
02:00 +18°C° 0 mm 2 m/S 690 mmHg 91%
03:00 +18°C° 0 mm 2 m/S 690 mmHg 92%
04:00 +18°C° 0 mm 2 m/S 690 mmHg 93%
05:00 +19°C° 0 mm 1 m/S 690 mmHg 94%
06:00 +19°C° 0 mm 1 m/S 690 mmHg 94%
07:00 +20°C° 0 mm 2 m/S 691 mmHg 84%
08:00 +24°C° 0 mm 2 m/S 692 mmHg 75%
09:00 +26°C° 0 mm 2 m/S 692 mmHg 65%
10:00 +27°C° 0.5 mm 2 m/S 692 mmHg 71%
11:00 +27°C° 0.5 mm 2 m/S 692 mmHg 77%
12:00 +27°C° 0.5 mm 2 m/S 692 mmHg 83%
13:00 +27°C° 1.4 mm 2 m/S 691 mmHg 85%
14:00 +27°C° 1.4 mm 1 m/S 691 mmHg 87%
15:00 +27°C° 1.4 mm 1 m/S 690 mmHg 89%
16:00 +26°C° 1.3 mm 1 m/S 690 mmHg 90%
17:00 +25°C° 1.3 mm 1 m/S 690 mmHg 92%
18:00 +23°C° 1.3 mm 0 m/S 690 mmHg 94%
19:00 +24°C° 1.1 mm 1 m/S 690 mmHg 95%
20:00 +23°C° 1.1 mm 1 m/S 690 mmHg 96%
21:00 +22°C° 1.1 mm 1 m/S 690 mmHg 97%
22:00 +22°C° 0 mm 1 m/S 690 mmHg 97%
23:00 +21°C° 0 mm 1 m/S 690 mmHg 97%

27 Januar, Mittwoch

Zeit Temperatur Niederschläge Wind Luftdruck Luftfeuchtigkeit
00:00 +21°C° 0 mm 1 m/S 689 mmHg 97%
01:00 +21°C° 0 mm 1 m/S 689 mmHg 96%
02:00 +21°C° 0 mm 1 m/S 689 mmHg 95%
03:00 +20°C° 0 mm 2 m/S 688 mmHg 95%
04:00 +20°C° 0 mm 2 m/S 688 mmHg 93%
05:00 +20°C° 0 mm 2 m/S 688 mmHg 92%
06:00 +20°C° 0 mm 2 m/S 688 mmHg 91%
07:00 +23°C° 0 mm 2 m/S 689 mmHg 82%
08:00 +25°C° 0 mm 3 m/S 690 mmHg 72%
09:00 +27°C° 0 mm 3 m/S 690 mmHg 63%
10:00 +28°C° 0 mm 4 m/S 690 mmHg 58%
11:00 +30°C° 0 mm 4 m/S 690 mmHg 52%
12:00 +33°C° 0 mm 4 m/S 691 mmHg 46%
13:00 +30°C° 0.6 mm 4 m/S 690 mmHg 57%
14:00 +29°C° 0.6 mm 3 m/S 690 mmHg 67%
15:00 +27°C° 0.6 mm 3 m/S 689 mmHg 77%
16:00 +27°C° 0.3 mm 3 m/S 689 mmHg 80%
17:00 +26°C° 0.3 mm 2 m/S 689 mmHg 83%
18:00 +25°C° 0.3 mm 2 m/S 689 mmHg 86%
19:00 +24°C° 0.5 mm 2 m/S 689 mmHg 90%
20:00 +23°C° 0.5 mm 1 m/S 689 mmHg 94%
21:00 +21°C° 0.5 mm 1 m/S 689 mmHg 98%
22:00 +21°C° 0 mm 1 m/S 689 mmHg 98%
23:00 +21°C° 0 mm 1 m/S 689 mmHg 98%

28 Januar, Donnerstag

Zeit Temperatur Niederschläge Wind Luftdruck Luftfeuchtigkeit
00:00 +21°C° 0 mm 1 m/S 689 mmHg 98%
01:00 +20°C° 0.2 mm 1 m/S 689 mmHg 99%
02:00 +20°C° 0.2 mm 1 m/S 689 mmHg 99%
03:00 +18°C° 0.2 mm 0 m/S 689 mmHg 99%
04:00 +18°C° 0.4 mm 0 m/S 689 mmHg 99%
05:00 +18°C° 0.4 mm 0 m/S 689 mmHg 99%
06:00 +18°C° 0.4 mm 0 m/S 689 mmHg 99%
07:00 +19°C° 0.6 mm 0 m/S 690 mmHg 98%
08:00 +20°C° 0.6 mm 0 m/S 690 mmHg 97%
09:00 +23°C° 0.6 mm 1 m/S 691 mmHg 97%
10:00 +23°C° 0.9 mm 1 m/S 691 mmHg 94%
11:00 +24°C° 0.9 mm 1 m/S 691 mmHg 92%
12:00 +24°C° 0.9 mm 1 m/S 691 mmHg 90%
13:00 +24°C° 1.4 mm 1 m/S 691 mmHg 90%
14:00 +24°C° 1.4 mm 1 m/S 690 mmHg 91%
15:00 +24°C° 1.4 mm 1 m/S 690 mmHg 92%

29 Januar, Freitag

Zeit Temperatur Niederschläge Wind Luftdruck Luftfeuchtigkeit
Mehr zeigen

Wir brauchen deine Erlaubnis

Meteoprog und unser Service Anbieter werden persönliche Daten aufbewahren, so wie Cookies, Geräte Bezeichnung oder ähnliche Technologien von deinem Gerät und Prozess, so wie Persönliche Daten Inhalte und Werbungen, genauso wie social Media und den Verkehr zu analysieren.

  • Aufbewahrung und/oder Zugang zu deiner Geräte Informationen.

    Cookies, Geräte Bezeichnung oder andere Informationen, können aufbewahrt oder Zugang zu deinem Gerät erhalten, für den Grund, der oben angegeben wird.

  • Personalisierte Werbung und Inhalte, Messungen, Einblick in das Publikum und Produkt Entwicklung.

    Werbungen und Inhalte können personalisiert werden, basierend auf ein Profil. Mehr Daten können besser personalisierte Werbungen und Inhalte hinzufügen. Werbung und Inhalte können gezeigt und gemessen werden. Einblicke über das Publikum, welche die Werbung gesehen haben und den Inhalt, können abgeleitet werden. So wie Daten können genutzt werden, um es zu verbessern oder die Benutzer Erfahrung zu verbessern das System und die Software.

Wenn du “Ich stimme zu” klickst, erlaubst du uns, die Cookies zu benutzen die Geräte Bezeichnung, den Web oder ähnliche Technologien zu benutzen. Deine Settings, können in deinem Gerät bei deinem Browser geändert werden.

Für den bestimmten Zweck, berechtigten Interessen beruhen darauf, mehr als auf den Inhalt. Du kannst mehr darüber in unseren Privaten und Cookie Politik lesen.